Cape Cod CGAS, MA

3:57 PM EDT on August 17, 2017 (GMT -0400)
Cape Cod Coast Guard Air Station

Weather History for KFMH - January, 2013

Change the Weather History Date:

Friday, January 11, 2013

  Actual Average Record
Temperature  
Mean Temperature 34 °F -  
Max Temperature 42 °F 34 °F 59 °F (2014)
Min Temperature 26 °F 20 °F 1 °F (2004)
Degree Days  
Heating Degree Days 31    
Moisture  
Dew Point 30 °F    
Average Humidity 79    
Maximum Humidity 100    
Minimum Humidity 65    
Precipitation  
Precipitation 0.02 in - - ()
Sea Level Pressure  
Sea Level Pressure 30.40 in    
Wind  
Wind Speed 5 mph (ESE)    
Max Wind Speed 12 mph    
Max Gust Speed 17 mph    
Visibility 10 miles    
Events Rain    
Averages and records for this station are not official NWS values.
T = Trace of Precipitation, MM = Missing Value Source: NWS Daily Summary

Daily Weather History Graph

Daily Weather History Graph

Search for Another Location

Airport or City:

Trip Planner

Search our weather history database for the weather conditions in past years. The results will help you decide how hot, cold, wet, or windy it might be!

Date:

Astronomy

Jan. 11, 2013 Rise Set
Actual Time 7:08 AM EST 4:32 PM EST
Civil Twilight 6:37 AM EST 5:03 PM EST
Nautical Twilight 6:02 AM EST 5:37 PM EST
Astronomical Twilight 5:29 AM EST 6:11 PM EST
Moon 6:37 AM EST (1/11) 4:47 PM EST (1/11)
Length of Visible Light 10h 26m
Length of Day
9h 24m
Waning Crescent, 0% of the Moon is Illuminated
Jan 11
Waning Crescent
Jan 11
New
Jan 18
First Quarter
Jan 26
Full
Feb 3
Last Quarter

Hourly Weather History & Observations

Time (EST) Temp. Windchill Dew Point Humidity Pressure Visibility Wind Dir Wind Speed Gust Speed Precip Events Conditions
12:15 AM 32.0 °F 26.4 °F 23.0 °F 69% 30.50 in 10.0 mi NNW 5.8 mph - N/A   Unknown
12:35 AM 32.0 °F 25.6 °F 23.0 °F 69% 30.50 in 10.0 mi NNW 6.9 mph - N/A   Unknown
12:55 AM 32.0 °F 26.4 °F 23.0 °F 69% 30.50 in 10.0 mi NNW 5.8 mph - N/A   Unknown
1:15 AM 32.0 °F 26.4 °F 23.0 °F 69% 30.50 in 10.0 mi NNW 5.8 mph - N/A   Unknown
1:35 AM 28.4 °F 24.6 °F 23.0 °F 80% 30.50 in 10.0 mi North 3.5 mph - N/A   Unknown
1:55 AM 30.2 °F 23.4 °F 23.0 °F 75% 30.50 in 10.0 mi NNW 6.9 mph - N/A   Unknown
2:15 AM 30.2 °F 23.4 °F 23.0 °F 75% 30.50 in 10.0 mi NNW 6.9 mph - N/A   Unknown
2:35 AM 30.2 °F 25.4 °F 23.0 °F 75% 30.50 in 10.0 mi NNW 4.6 mph - N/A   Unknown
2:55 AM 30.2 °F 24.3 °F 23.0 °F 75% 30.49 in 10.0 mi NW 5.8 mph - N/A   Unknown
3:15 AM 26.6 °F 20.0 °F 21.2 °F 80% 30.49 in 10.0 mi NW 5.8 mph - N/A   Unknown
3:35 AM 30.2 °F 24.3 °F 23.0 °F 75% 30.48 in 10.0 mi NNW 5.8 mph - N/A   Unknown
3:55 AM 28.4 °F 22.2 °F 23.0 °F 80% 30.47 in 10.0 mi NNW 5.8 mph - N/A   Unknown
4:15 AM 28.4 °F 21.2 °F 23.0 °F 80% 30.46 in 10.0 mi NNW 6.9 mph - N/A   Unknown
4:35 AM 30.2 °F 24.3 °F 23.0 °F 75% 30.46 in 10.0 mi NNW 5.8 mph - N/A   Unknown
4:55 AM 30.2 °F 25.4 °F 23.0 °F 75% 30.46 in 10.0 mi NNW 4.6 mph - N/A   Unknown
5:15 AM 30.2 °F 24.3 °F 24.8 °F 80% 30.46 in 10.0 mi North 5.8 mph - N/A   Unknown
5:35 AM 28.4 °F 23.3 °F 23.0 °F 80% 30.46 in 10.0 mi North 4.6 mph - N/A   Unknown
5:55 AM 30.2 °F 26.7 °F 24.8 °F 80% 30.47 in 10.0 mi NNE 3.5 mph - N/A   Unknown
6:15 AM 28.4 °F 22.2 °F 24.8 °F 86% 30.47 in 10.0 mi North 5.8 mph - N/A   Unknown
6:35 AM 30.2 °F 26.7 °F 24.8 °F 80% 30.48 in 10.0 mi NNW 3.5 mph - N/A   Unknown
6:55 AM 28.4 °F - 24.8 °F 86% 30.49 in 10.0 mi Calm Calm - N/A   Unknown
7:15 AM 30.2 °F 26.7 °F 24.8 °F 80% 30.48 in 10.0 mi NNE 3.5 mph - N/A   Unknown
7:35 AM 30.2 °F 25.4 °F 26.6 °F 86% 30.49 in 10.0 mi North 4.6 mph - N/A   Unknown
7:55 AM 28.4 °F 24.6 °F 24.8 °F 86% 30.49 in 10.0 mi West 3.5 mph - N/A   Unknown
8:15 AM 30.2 °F 25.4 °F 26.6 °F 86% 30.49 in 10.0 mi WNW 4.6 mph - N/A   Unknown
8:35 AM 32.0 °F - 26.6 °F 80% 30.49 in 10.0 mi Calm Calm - N/A   Unknown
8:55 AM 32.0 °F - 26.6 °F 80% 30.50 in 10.0 mi Calm Calm - N/A   Unknown
9:15 AM 32.0 °F - 28.4 °F 87% 30.49 in 10.0 mi Calm Calm - N/A   Unknown
9:35 AM 35.6 °F - 28.4 °F 75% 30.49 in 10.0 mi Calm Calm - N/A   Unknown
9:55 AM 35.6 °F - 30.2 °F 81% 30.48 in 10.0 mi Calm Calm - N/A   Unknown
10:15 AM 37.4 °F 34.9 °F 32.0 °F 81% 30.49 in 10.0 mi WSW 3.5 mph - N/A   Unknown
10:35 AM 39.2 °F - 32.0 °F 75% 30.48 in 10.0 mi Calm Calm - N/A   Unknown
10:55 AM 41.0 °F 36.4 °F 32.0 °F 70% 30.45 in 10.0 mi East 6.9 mph - N/A   Unknown
11:15 AM 41.0 °F 38.0 °F 30.2 °F 65% 30.44 in 10.0 mi East 4.6 mph - N/A   Unknown
11:35 AM 41.0 °F 38.0 °F 30.2 °F 65% 30.43 in 10.0 mi ESE 4.6 mph - N/A   Unknown
11:55 AM 41.0 °F 36.4 °F 30.2 °F 65% 30.42 in 10.0 mi SSE 6.9 mph - N/A   Unknown
12:15 PM 41.0 °F 37.1 °F 30.2 °F 65% 30.40 in 10.0 mi SE 5.8 mph - N/A   Unknown
12:35 PM 41.0 °F 35.8 °F 32.0 °F 70% 30.40 in 10.0 mi SSE 8.1 mph - N/A   Unknown
12:55 PM 41.0 °F 39.0 °F 32.0 °F 70% 30.41 in 10.0 mi SSE 3.5 mph - N/A   Unknown
1:15 PM 41.0 °F 36.4 °F 32.0 °F 70% 30.39 in 10.0 mi SE 6.9 mph - N/A   Unknown
1:35 PM 41.0 °F 38.0 °F 32.0 °F 70% 30.39 in 10.0 mi SE 4.6 mph - N/A   Unknown
1:55 PM 41.0 °F 37.1 °F 32.0 °F 70% 30.38 in 10.0 mi SSE 5.8 mph - N/A   Unknown
2:15 PM 41.0 °F 37.1 °F 32.0 °F 70% 30.37 in 10.0 mi SSE 5.8 mph - N/A   Unknown
2:35 PM 41.0 °F 38.0 °F 32.0 °F 70% 30.37 in 10.0 mi SE 4.6 mph - N/A   Unknown
2:55 PM 41.0 °F 38.0 °F 32.0 °F 70% 30.37 in 10.0 mi South 4.6 mph - N/A   Unknown
3:15 PM 39.2 °F 37.0 °F 32.0 °F 75% 30.37 in 10.0 mi SSW 3.5 mph - N/A   Unknown
3:35 PM 39.2 °F 35.9 °F 32.0 °F 75% 30.37 in 10.0 mi SSW 4.6 mph - N/A   Unknown
3:55 PM 39.2 °F 37.0 °F 32.0 °F 75% 30.36 in 10.0 mi SSE 3.5 mph - N/A   Unknown
4:15 PM 39.2 °F 37.0 °F 32.0 °F 75% 30.35 in 10.0 mi ESE 3.5 mph - N/A   Unknown
4:35 PM 37.4 °F 32.8 °F 32.0 °F 81% 30.34 in 10.0 mi ESE 5.8 mph - N/A   Unknown
4:55 PM 37.4 °F 33.8 °F 32.0 °F 81% 30.33 in 10.0 mi ESE 4.6 mph - N/A   Unknown
5:15 PM 37.4 °F 32.8 °F 32.0 °F 81% 30.32 in 10.0 mi ESE 5.8 mph - N/A   Unknown
5:35 PM 37.4 °F - 32.0 °F 81% 30.33 in 10.0 mi Calm Calm - N/A   Unknown
5:55 PM 37.4 °F 34.9 °F 32.0 °F 81% 30.32 in 10.0 mi SE 3.5 mph - N/A   Unknown
6:15 PM 37.4 °F 34.9 °F 32.0 °F 81% 30.32 in 10.0 mi SE 3.5 mph - N/A   Unknown
6:35 PM 37.4 °F 34.9 °F 32.0 °F 81% 30.32 in 10.0 mi SE 3.5 mph - N/A   Unknown
6:55 PM 37.4 °F 33.8 °F 32.0 °F 81% 30.32 in 10.0 mi SE 4.6 mph - N/A   Unknown
7:15 PM 37.4 °F 33.8 °F 32.0 °F 81% 30.31 in 10.0 mi SE 4.6 mph - N/A   Unknown
7:35 PM 37.4 °F 32.8 °F 32.0 °F 81% 30.30 in 10.0 mi SE 5.8 mph - N/A Rain Light Rain
7:55 PM 37.4 °F 32.1 °F 33.8 °F 87% 30.30 in 10.0 mi SE 6.9 mph - N/A   Unknown
8:15 PM 37.4 °F 30.8 °F 33.8 °F 87% 30.28 in 10.0 mi SSE 9.2 mph - N/A   Unknown
8:35 PM 39.2 °F 33.6 °F 33.8 °F 81% 30.28 in 10.0 mi SSE 8.1 mph - N/A   Unknown
8:55 PM 39.2 °F 32.5 °F 33.8 °F 81% 30.28 in 10.0 mi SSE 10.4 mph - N/A   Unknown
9:15 PM 39.2 °F 33.0 °F 35.6 °F 87% 30.26 in 10.0 mi SE 9.2 mph - N/A   Unknown
9:35 PM 39.2 °F 33.0 °F 35.6 °F 87% 30.27 in 6.0 mi SSE 9.2 mph - N/A Rain Light Rain
9:55 PM 37.4 °F 31.4 °F 35.6 °F 93% 30.26 in 7.0 mi SE 8.1 mph - N/A Rain Light Rain
10:15 PM 37.4 °F 30.8 °F 35.6 °F 93% 30.26 in 7.0 mi SE 9.2 mph - N/A Rain Light Rain
10:35 PM 37.4 °F 31.4 °F 37.4 °F 100% 30.26 in 6.0 mi SE 8.1 mph - N/A Rain Light Rain
10:55 PM 37.4 °F 32.8 °F 37.4 °F 100% 30.26 in 6.0 mi SE 5.8 mph - 0.01 in Rain Light Rain
11:15 PM 37.4 °F 32.1 °F 37.4 °F 100% 30.25 in 5.0 mi SSE 6.9 mph - N/A Rain Light Rain
11:35 PM 37.4 °F 31.4 °F 37.4 °F 100% 30.23 in 7.0 mi SSE 8.1 mph - N/A Rain Light Rain
11:55 PM 37.4 °F 29.8 °F 37.4 °F 100% 30.22 in 5.0 mi SSE 11.5 mph 17.3 mph 0.01 in Rain Light Rain